User: anonymous   Login
Location: Newark
(44.0692°N, 7.2567°E)
Time: 03:30:41
(UTC+00:00)
Language:

DELFI C3 - Orbit

View from above orbital plane
View from above orbital plane
View from above satellite
View from above satellite

Ground track
Ground track

The orbit data is extracted from the following two-line orbital elements,

1 32789U 08021G   19290.72511662  .00000880  00000-0  62437-4 0  9993
2 32789  97.4520 336.6701 0013677  74.5106 285.7631 15.07179301625190
Epoch (UTC): 17 October 2019 17:24:10
Eccentricity: 0.0013677
inclination: 97.4520°
perigee height: 535 km
apogee height: 554 km
right ascension of ascending node: 336.6701°
argument of perigee: 74.5106°
revolutions per day: 15.07179301
mean anomaly at epoch: 285.7631°
orbit number at epoch: 62519

The dashed part of the orbit path shows where the satellite is in the earth's shadow,  

DLR